Change the Weather History Date:

Friday, March 29, 2013

  Actual Average Record
Temperature  
Mean Temperature 36 °F -  
Max Temperature 51 °F 53 °F 79 °F (1963)
Min Temperature 22 °F 34 °F 14 °F (1970)
Degree Days  
Heating Degree Days 28    
Moisture  
Dew Point 20 °F    
Average Humidity 57    
Maximum Humidity 91    
Minimum Humidity 28    
Precipitation  
Precipitation 0.00 in - - ()
Sea Level Pressure  
Sea Level Pressure 30.27 in    
Wind  
Wind Speed 2 mph (NW)    
Max Wind Speed 14 mph    
Max Gust Speed 18 mph    
Visibility 10 miles    
Events      
Averages and records for this station are not official NWS values.
T = Trace of Precipitation, MM = Missing Value Source: NWS Daily Summary

Daily Weather History Graph

Daily Weather History Graph

Search for Another Location

Airport or City:

Trip Planner

Search our weather history database for the weather conditions in past years. The results will help you decide how hot, cold, wet, or windy it might be!

Date:

Astronomy

Mar. 29, 2013 Rise Set
Actual Time 7:29 AM EDT 8:04 PM EDT
Civil Twilight 7:01 AM EDT 8:33 PM EDT
Nautical Twilight 6:28 AM EDT 9:06 PM EDT
Astronomical Twilight 5:54 AM EDT 9:40 PM EDT
Moon 11:07 PM EDT (3/29) 8:35 AM EDT (3/29)
Length of Visible Light 13h 31m
Length of Day
12h 35m
Waning Gibbous, 93% of the Moon is Illuminated
Mar 29
Waning Gibbous
Apr 3
Last Quarter
Apr 10
New
Apr 18
First Quarter
Apr 25
Full

Hourly Weather History & Observations

Time (EDT) Temp. Windchill Dew Point Humidity Pressure Visibility Wind Dir Wind Speed Gust Speed Precip Events Conditions
12:14 AM 28.9 °F - 20.7 °F 71% 30.30 in 10.0 mi Calm Calm - N/A   Clear
12:35 AM 28.8 °F - 20.3 °F 71% 30.30 in 10.0 mi Calm Calm - N/A   Clear
12:54 AM 28.9 °F - 20.7 °F 71% 30.30 in 10.0 mi Calm Calm - N/A   Clear
1:14 AM 27.9 °F - 21.2 °F 76% 30.30 in 10.0 mi Calm Calm - N/A   Clear
1:35 AM 27.3 °F - 19.9 °F 74% 30.30 in 10.0 mi Calm Calm - N/A   Clear
1:54 AM 26.2 °F - 19.8 °F 76% 30.30 in 10.0 mi Calm Calm - N/A   Clear
2:15 AM 26.1 °F - 21.7 °F 84% 30.30 in 10.0 mi Calm Calm - N/A   Clear
2:35 AM 25.9 °F - 21.2 °F 82% 30.30 in 10.0 mi Calm Calm - N/A   Clear
2:54 AM 26.1 °F - 21.9 °F 84% 30.30 in 10.0 mi Calm Calm - N/A   Clear
3:15 AM 25.3 °F - 21.2 °F 84% 30.30 in 10.0 mi Calm Calm - N/A   Clear
3:35 AM 24.8 °F - 20.7 °F 84% 30.30 in 10.0 mi Calm Calm - N/A   Clear
3:54 AM 25.2 °F - 21.2 °F 85% 30.30 in 10.0 mi Calm Calm - N/A   Clear
4:15 AM 24.8 °F - 20.3 °F 83% 30.29 in 10.0 mi Calm Calm - N/A   Clear
4:34 AM 24.4 °F - 20.3 °F 84% 30.29 in 10.0 mi Calm Calm - N/A   Clear
4:54 AM 25.2 °F - 21.0 °F 84% 30.29 in 10.0 mi Calm Calm - N/A   Clear
5:15 AM 24.3 °F - 20.3 °F 85% 30.29 in 10.0 mi Calm Calm - N/A   Clear
5:34 AM 23.7 °F - 20.3 °F 87% 30.29 in 10.0 mi Calm Calm - N/A   Clear
5:54 AM 23.7 °F - 21.0 °F 89% 30.29 in 10.0 mi Calm Calm - N/A   Clear
6:15 AM 23.2 °F - 20.8 °F 91% 30.29 in 10.0 mi Calm Calm - N/A   Clear
6:34 AM 22.6 °F - 20.3 °F 91% 30.28 in 10.0 mi Calm Calm - N/A   Clear
6:55 AM 22.5 °F - 19.9 °F 90% 30.29 in 10.0 mi Calm Calm - N/A   Clear
7:15 AM 22.5 °F - 19.9 °F 90% 30.29 in 10.0 mi Calm Calm - N/A   Clear
7:34 AM 22.5 °F - 20.1 °F 91% 30.29 in 10.0 mi Calm Calm - N/A   Clear
7:55 AM 23.4 °F - 21.2 °F 91% 30.29 in 7.0 mi Calm Calm - N/A   Clear
8:15 AM 24.6 °F - 21.7 °F 89% 30.30 in 10.0 mi Calm Calm - N/A   Clear
8:34 AM 26.1 °F - 23.0 °F 88% 30.30 in 10.0 mi Calm Calm - N/A   Clear
8:55 AM 28.8 °F - 25.9 °F 89% 30.30 in 10.0 mi Calm Calm - N/A   Clear
9:14 AM 31.1 °F - 27.5 °F 87% 30.30 in 10.0 mi Calm Calm - N/A   Clear
9:35 AM 32.7 °F - 28.0 °F 83% 30.30 in 10.0 mi Calm Calm - N/A   Clear
9:55 AM 35.1 °F - 26.8 °F 72% 30.30 in 10.0 mi Calm Calm - N/A   Clear
10:14 AM 37.8 °F - 26.4 °F 64% 30.31 in 10.0 mi Calm Calm - N/A   Clear
10:35 AM 39.7 °F - 23.7 °F 53% 30.30 in 10.0 mi Calm Calm - N/A   Clear
10:54 AM 41.9 °F - 21.2 °F 44% 30.30 in 10.0 mi Calm Calm - N/A   Clear
11:14 AM 42.8 °F - 18.9 °F 38% 30.30 in 10.0 mi Calm Calm - N/A   Clear
11:35 AM 44.2 °F - 18.1 °F 35% 30.31 in 10.0 mi Calm Calm - N/A   Clear
11:54 AM 45.1 °F - 17.6 °F 33% 30.30 in 10.0 mi Calm Calm - N/A   Clear
12:14 PM 46.6 °F - 19.6 °F 34% 30.30 in 10.0 mi WNW 3.5 mph - N/A   Clear
12:54 PM 48.0 °F - 18.7 °F 31% 30.29 in 10.0 mi NW 3.5 mph 9.2 mph N/A   Clear
1:15 PM 48.4 °F - 18.7 °F 31% 30.28 in 10.0 mi West 13.8 mph - N/A   Clear
1:35 PM 48.4 °F - 17.8 °F 30% 30.28 in 10.0 mi WNW 8.1 mph 16.1 mph N/A   Clear
1:54 PM 48.9 °F - 18.5 °F 30% 30.27 in 10.0 mi West 10.4 mph 16.1 mph N/A   Clear
2:15 PM 49.5 °F - 18.3 °F 29% 30.26 in 10.0 mi NNW 5.8 mph - N/A   Clear
2:35 PM 50.0 °F - 17.8 °F 28% 30.26 in 10.0 mi NNW 6.9 mph - N/A   Clear
2:54 PM 49.1 °F - 18.1 °F 29% 30.25 in 10.0 mi NW 6.9 mph - N/A   Clear
3:15 PM 50.2 °F - 18.9 °F 29% 30.24 in 10.0 mi NW 9.2 mph - N/A   Clear
3:34 PM 50.5 °F - 19.0 °F 29% 30.24 in 10.0 mi NW 9.2 mph - N/A   Clear
3:54 PM 50.5 °F - 19.6 °F 30% 30.23 in 10.0 mi NW 4.6 mph - N/A   Clear
4:15 PM 51.1 °F - 18.7 °F 28% 30.22 in 10.0 mi WNW 13.8 mph - N/A   Clear
4:34 PM 50.7 °F - 18.1 °F 28% 30.22 in 10.0 mi Calm Calm - N/A   Clear
4:55 PM 50.9 °F - 18.9 °F 28% 30.22 in 10.0 mi NW 8.1 mph - N/A   Clear
5:14 PM 50.7 °F - 19.2 °F 29% 30.22 in 10.0 mi WNW 11.5 mph 16.1 mph N/A   Clear
5:34 PM 50.7 °F - 19.2 °F 29% 30.22 in 10.0 mi NW 9.2 mph 18.4 mph N/A   Clear
5:54 PM 49.6 °F - 18.1 °F 29% 30.22 in 10.0 mi WNW 9.2 mph - N/A   Clear
6:14 PM 49.1 °F - 17.8 °F 29% 30.22 in 10.0 mi WNW 10.4 mph - N/A   Clear
6:35 PM 48.2 °F - 18.5 °F 31% 30.23 in 10.0 mi WNW 10.4 mph - N/A   Clear
6:54 PM 47.3 °F - 18.1 °F 31% 30.23 in 10.0 mi NW 10.4 mph - N/A   Clear
7:15 PM 46.2 °F 41.7 °F 18.1 °F 33% 30.23 in 10.0 mi NW 9.2 mph - N/A   Clear
7:35 PM 44.8 °F 40.4 °F 17.8 °F 34% 30.23 in 10.0 mi WNW 8.1 mph - N/A   Clear
7:54 PM 43.7 °F 39.1 °F 17.4 °F 35% 30.23 in 10.0 mi WNW 8.1 mph - N/A   Clear
8:15 PM 42.1 °F 39.2 °F 17.4 °F 37% 30.23 in 10.0 mi NW 4.6 mph - N/A   Clear
8:35 PM 37.9 °F 35.5 °F 19.9 °F 48% 30.23 in 10.0 mi NW 3.5 mph - N/A   Clear
8:54 PM 37.4 °F - 20.8 °F 51% 30.24 in 10.0 mi Calm Calm - N/A   Clear
9:15 PM 39.6 °F - 18.3 °F 42% 30.24 in 10.0 mi Calm Calm - N/A   Clear
9:35 PM 37.2 °F - 18.3 °F 46% 30.24 in 10.0 mi Calm Calm - N/A   Clear
9:54 PM 37.2 °F - 17.6 °F 45% 30.24 in 10.0 mi Calm Calm - N/A   Clear
10:15 PM 36.0 °F - 17.4 °F 47% 30.24 in 10.0 mi Calm Calm - N/A   Clear
10:34 PM 33.6 °F - 17.6 °F 52% 30.24 in 10.0 mi Calm Calm - N/A   Clear
10:54 PM 33.6 °F - 17.4 °F 52% 30.24 in 10.0 mi Calm Calm - N/A   Clear
11:15 PM 33.4 °F - 19.6 °F 57% 30.24 in 10.0 mi Calm Calm - N/A   Clear
11:34 PM 31.8 °F - 18.3 °F 57% 30.24 in 10.0 mi Calm Calm - N/A   Clear
11:55 PM 30.9 °F - 17.6 °F 58% 30.24 in 10.0 mi Calm Calm - N/A   Clear